Meteo Giornale » Osservazioni meteo Stati Uniti (USA) » Ocean City
ore: 01:53 - Osservazioni Meteo Ocean City
Lat. 38° 18' N Lon. 75° 7' W Alt. 4 metri s.l.m.
24 °C
Foschia
Temp. 24 Ore
23 °C
27 °C
Nord
0 Km/h
Dew point 23 °C
Umidità 94 %
Visibilità 8 Km
Il sole sorge alle ore 06:30
Il sole tramonta alle ore 19:30
| Data e Ora | Cielo e Fenomeni | T °C | DP °C | Um. % | Pres. hPa | Vis. km | Vento km/h | |
|---|---|---|---|---|---|---|---|---|
| Oggi h: 01:53 | Foschia | 24 | 23 | 94 | 1018 | 8 | N 0 | |
| Oggi h: 00:53 | Sereno | 24 | 24 | 100 | 1018 | 10 | N 0 | |
| Ieri h: 23:53 | Sereno | 25 | 24 | 94 | 1018 | 10 | N 5.5 | |
| Ieri h: 22:53 | Sereno | 24 | 23 | 94 | 1018 | 10 | S/SE 7.4 | |
| Ieri h: 21:53 | Sereno | 23 | 23 | 100 | 1018 | 11 | N 0 | |
| Ieri h: 20:53 | Poco Nuvoloso | 24 | 23 | 94 | 1018 | 10 | S/SE 7.4 | |
| Ieri h: 19:53 | Pioggia | 24 | 23 | 94 | 1018 | 14 | N 0 | |
| Ieri h: 18:53 | Pioggia | 24 | 23 | 94 | 1018 | 10 | N 5.5 | |
| Ieri h: 18:32 | Pioggia Foschia | 24 | 24 | 100 | 1019 | 8 | N 0 | |
| Ieri h: 17:53 | Molto Nuvoloso | 24 | 24 | 100 | 1019 | 10 | N 5.5 | |
| Ieri h: 17:49 | Molto Nuvoloso | 24 | 24 | 100 | 1019 | 14 | N 0 | |
| Ieri h: 17:35 | Pioggia Foschia | 24 | 23 | 94 | 1019 | 8 | N 0 | |
| Ieri h: 17:28 | Pioggia Foschia | 24 | 24 | 100 | 1019 | 2 | N 0 | |
| Ieri h: 17:19 | Pioggia Foschia | 24 | 23 | 94 | 1019 | 5 | N 5.5 | |
| Ieri h: 17:12 | Temporale nelle vicinanze Pioggia | 25 | 23 | 88 | 1019 | 5 | N 0 | |
| Ieri h: 17:03 | Temporale nelle vicinanze Pioggia | 25 | 23 | 88 | 1019 | 10 | N 0 | |
| Ieri h: 16:53 | Pioggia | 25 | 23 | 88 | 1019 | 13 | E 7.4 | |
| Ieri h: 16:46 | Pioggia | 25 | 23 | 88 | 1019 | 14 | N 0 | |
| Ieri h: 16:23 | Temporale nelle vicinanze Pioggia | 25 | 24 | 94 | 1019 | 11 | E 11.1 | |
| Ieri h: 16:16 | Pioggia Foschia | 25 | 24 | 94 | 1018 | 10 | E/SE 13 | |
| Ieri h: 15:53 | Pioggia | 26 | 23 | 83 | 1018 | 14 | E/SE 9.3 | |
| Ieri h: 14:53 | Molto Nuvoloso | 27 | 24 | 83 | 1019 | 10 | SE 13 | |
| Ieri h: 13:53 | Sereno | 27 | 24 | 83 | 1019 | 10 | SE 9.3 | |
| Ieri h: 12:53 | Poco Nuvoloso | 27 | 23 | 78 | 1019 | 10 | SE 11.1 | |
| Ieri h: 11:53 | Sereno | 27 | 23 | 78 | 1019 | 10 | SE 11.1 | |
| Ieri h: 11:38 | Nuvoloso | 27 | 24 | 83 | 1019 | 10 | E/SE 9.3 | |
| Ieri h: 10:53 | Molto Nuvoloso | 27 | 24 | 83 | 1019 | 10 | SE 9.3 | |
| Ieri h: 10:23 | Coperto | 26 | 24 | 88 | 1019 | 10 | E/SE 13 | |
| Ieri h: 09:53 | Molto Nuvoloso | 26 | 24 | 88 | 1019 | 10 | E 9.3 | |
| Ieri h: 09:43 | Nuvoloso | 27 | 24 | 83 | 1019 | 10 | E 11.1 | |
| Ieri h: 09:08 | Coperto | 26 | 23 | 83 | 1020 | 10 | N/NE 7.4 | |
| Ieri h: 08:59 | Coperto | 26 | 23 | 83 | 1020 | 10 | NE 9.3 | |
| Ieri h: 08:53 | Coperto | 26 | 24 | 88 | 1020 | 10 | E/NE 11.1 | |
| Ieri h: 08:48 | Coperto | 26 | 24 | 88 | 1019 | 10 | E/NE 9.3 | |
| Ieri h: 07:53 | Sereno | 24 | 23 | 94 | 1019 | 10 | N 5.5 | |
| Ieri h: 06:53 | Nuvoloso | 24 | 23 | 94 | 1019 | 10 | N 5.5 | |
| Ieri h: 05:53 | Coperto | 24 | 23 | 94 | 1018 | 10 | O/SO 13 | |
| Ieri h: 04:53 | Molto Nuvoloso | 24 | 23 | 94 | 1018 | 10 | N 0 | |
| Ieri h: 03:53 | Sereno | 24 | 23 | 94 | 1018 | 10 | O/SO 11.1 | |
| Ieri h: 02:53 | Sereno | 25 | 23 | 88 | 1019 | 10 | O/SO 9.3 | |



